| time (UTC) | temp C | wind direction | speed KPH | gust KPH | rain 1hr cm | rain 24hr cm | rain mn cm | humidity % | barometer mb |
| 20260906173016 | 23 | 134 | 8.0 | 16.1 | 0.00 | 0.00 | 0.00 | 82 | 1009.1 |
| 20260906171516 | 22 | 134 | 4.8 | 16.1 | 0.00 | 0.00 | 0.00 | 84 | 1009.2 |
| 20260906170020 | 22 | 134 | 3.2 | 12.9 | 0.00 | 0.00 | 0.00 | 85 | 1009.4 |
| 20260906164510 | 22 | 134 | 4.8 | 11.3 | 0.00 | 0.00 | 0.00 | 86 | 1009.6 |
| 20260906163009 | 21 | 134 | 1.6 | 12.9 | 0.00 | 0.00 | 0.00 | 86 | 1009.7 |
| 20260906161511 | 21 | 134 | 9.7 | 19.3 | 0.00 | 0.00 | 0.00 | 86 | 1009.6 |
| 20260906160009 | 21 | 134 | 6.4 | 16.1 | 0.00 | 0.00 | 0.00 | 87 | 1009.5 |
| 20260906154512 | 21 | 134 | 1.6 | 17.7 | 0.00 | 0.00 | 0.00 | 88 | 1009.7 |
| 20260906153007 | 21 | 134 | 6.4 | 14.5 | 0.00 | 0.00 | 0.00 | 88 | 1009.6 |
| 20260906151507 | 21 | 134 | 3.2 | 12.9 | 0.00 | 0.00 | 0.00 | 89 | 1009.9 |
| 20260906150006 | 21 | 134 | 3.2 | 14.5 | 0.00 | 0.00 | 0.00 | 88 | 1009.8 |
| 20260906144504 | 21 | 134 | 1.6 | 14.5 | 0.00 | 0.00 | 0.00 | 89 | 1009.7 |
| 20260906143004 | 21 | 134 | 9.7 | 16.1 | 0.00 | 0.00 | 0.00 | 89 | 1009.6 |
| 20260906141502 | 20 | 134 | 4.8 | 12.9 | 0.00 | 0.00 | 0.00 | 90 | 1009.7 |
| 20260906140001 | 20 | 134 | 6.4 | 17.7 | 0.00 | 0.00 | 0.00 | 91 | 1009.7 |
| 20260906134602 | 20 | 134 | 1.6 | 12.9 | 0.00 | 0.00 | 0.00 | 92 | 1009.4 |
| 20260906133121 | 20 | 134 | 3.2 | 14.5 | 0.00 | 0.00 | 0.00 | 93 | 1009.3 |
| 20260906131557 | 20 | 134 | 0.0 | 12.9 | 0.00 | 0.00 | 0.00 | 93 | 1009.2 |
| 20260906130056 | 19 | 134 | 1.6 | 9.7 | 0.00 | 0.00 | 0.00 | 93 | 1009.0 |
| 20260906124554 | 19 | 134 | 0.0 | 6.4 | 0.00 | 0.00 | 0.00 | 93 | 1008.9 |
| 20260906123054 | 18 | 134 | 0.0 | 3.2 | 0.00 | 0.00 | 0.00 | 92 | 1008.9 |
| 20260906121553 | 18 | 134 | 0.0 | 1.6 | 0.00 | 0.00 | 0.00 | 92 | 1008.9 |
| 20260906120051 | 18 | 134 | 0.0 | 0.0 | 0.00 | 0.00 | 0.00 | 92 | 1008.9 |
| 20260906114604 | 19 | 134 | 0.0 | 0.0 | 0.00 | 0.00 | 0.00 | 92 | 1008.7 |
| 20260906113051 | 19 | 134 | 0.0 | 3.2 | 0.00 | 0.00 | 0.00 | 92 | 1008.4 |
| 20260906111550 | 19 | 134 | 0.0 | 3.2 | 0.00 | 0.00 | 0.00 | 91 | 1008.4 |
| 20260906110045 | 19 | 134 | 0.0 | 1.6 | 0.00 | 0.00 | 0.00 | 91 | 1008.4 |
| 20260906104558 | 20 | 134 | 0.0 | 1.6 | 0.00 | 0.00 | 0.00 | 90 | 1008.3 |
| 20260906103043 | 20 | 134 | 0.0 | 0.0 | 0.00 | 0.00 | 0.00 | 91 | 1008.4 |
| 20260906101541 | 20 | 134 | 0.0 | 3.2 | 0.00 | 0.00 | 0.00 | 91 | 1008.2 |
| 20260906100041 | 20 | 134 | 0.0 | 8.0 | 0.00 | 0.00 | 0.00 | 90 | 1008.2 |
| 20260906094539 | 20 | 134 | 1.6 | 9.7 | 0.00 | 0.00 | 0.00 | 90 | 1007.9 |
| 20260906093037 | 20 | 134 | 1.6 | 6.4 | 0.00 | 0.00 | 0.00 | 89 | 1007.7 |
| 20260906091536 | 20 | 134 | 0.0 | 8.0 | 0.00 | 0.00 | 0.00 | 89 | 1007.5 |
| 20260906090037 | 20 | 134 | 1.6 | 9.7 | 0.00 | 0.00 | 0.00 | 89 | 1007.5 |
| 20260906084535 | 21 | 134 | 1.6 | 6.4 | 0.00 | 0.00 | 0.00 | 88 | 1007.7 |
| 20260906083036 | 21 | 134 | 1.6 | 11.3 | 0.00 | 0.00 | 0.00 | 88 | 1007.4 |
| 20260906081531 | 21 | 134 | 4.8 | 12.9 | 0.00 | 0.00 | 0.00 | 88 | 1007.1 |
| 20260906080033 | 21 | 134 | 1.6 | 11.3 | 0.00 | 0.00 | 0.00 | 88 | 1007.3 |
| 20260906074530 | 21 | 134 | 3.2 | 12.9 | 0.00 | 0.00 | 0.00 | 87 | 1007.3 |
| 20260906073032 | 21 | 134 | 4.8 | 9.7 | 0.00 | 0.00 | 0.00 | 87 | 1007.4 |
| 20260906071526 | 21 | 134 | 3.2 | 8.0 | 0.00 | 0.00 | 0.00 | 86 | 1007.6 |
| 20260906070022 | 21 | 134 | 0.0 | 3.2 | 0.00 | 0.00 | 0.00 | 86 | 1007.8 |
| 20260906064521 | 22 | 134 | 0.0 | 6.4 | 0.00 | 0.00 | 0.00 | 86 | 1008.0 |
| 20260906063021 | 22 | 134 | 0.0 | 8.0 | 0.00 | 0.00 | 0.00 | 86 | 1007.8 |
| 20260906061520 | 22 | 134 | 1.6 | 8.0 | 0.00 | 0.00 | 0.00 | 86 | 1007.9 |
| 20260906060020 | 22 | 134 | 0.0 | 6.4 | 0.00 | 0.00 | 0.00 | 86 | 1007.9 |
| 20260906054518 | 22 | 134 | 1.6 | 8.0 | 0.00 | 0.00 | 0.00 | 87 | 1007.8 |
| 20260906053017 | 22 | 134 | 0.0 | 3.2 | 0.00 | 0.00 | 0.00 | 86 | 1007.9 |
| 20260906051515 | 22 | 134 | 0.0 | 6.4 | 0.00 | 0.00 | 0.00 | 86 | 1007.9 |
| 20260906050014 | 22 | 134 | 0.0 | 0.0 | 0.00 | 0.00 | 0.00 | 86 | 1008.1 |
| 20260906044512 | 22 | 134 | 0.0 | 1.6 | 0.00 | 0.00 | 0.00 | 86 | 1008.1 |
| 20260906043013 | 22 | 134 | 0.0 | 1.6 | 0.00 | 0.00 | 0.00 | 85 | 1008.1 |
| 20260906041516 | 22 | 134 | 0.0 | 0.0 | 0.00 | 0.00 | 0.00 | 85 | 1008.3 |
| 20260906040011 | 22 | 134 | 0.0 | 0.0 | 0.00 | 0.00 | 0.00 | 85 | 1008.3 |
| 20260906034512 | 22 | 134 | 0.0 | 0.0 | 0.00 | 0.00 | 0.00 | 84 | 1008.2 |
| 20260906033011 | 22 | 134 | 0.0 | 0.0 | 0.00 | 0.00 | 0.00 | 84 | 1008.2 |
| 20260906031510 | 23 | 134 | 0.0 | 0.0 | 0.00 | 0.00 | 0.00 | 84 | 1008.0 |
| 20260906030010 | 23 | 134 | 0.0 | 0.0 | 0.00 | 0.00 | 0.00 | 83 | 1008.3 |
| 20260906024509 | 23 | 134 | 0.0 | 0.0 | 0.00 | 0.00 | 0.00 | 82 | 1008.4 |
| 20260906023018 | 23 | 134 | 0.0 | 0.0 | 0.00 | 0.00 | 0.00 | 82 | 1008.3 |
| 20260906021513 | 23 | 134 | 0.0 | 0.0 | 0.00 | 0.00 | 0.00 | 81 | 1007.9 |
| 20260906020008 | 23 | 134 | 0.0 | 1.6 | 0.00 | 0.00 | 0.00 | 81 | 1007.4 |
| 20260906014510 | 24 | 134 | 0.0 | 8.0 | 0.00 | 0.00 | 0.00 | 79 | 1007.0 |
| 20260906013008 | 24 | 134 | 1.6 | 8.0 | 0.00 | 0.00 | 0.00 | 79 | 1006.5 |
| 20260906011507 | 25 | 134 | 3.2 | 11.3 | 0.00 | 0.00 | 0.00 | 77 | 1006.2 |
| 20260906010006 | 25 | 134 | 1.6 | 16.1 | 0.00 | 0.00 | 0.00 | 76 | 1006.2 |
| 20260906004509 | 25 | 134 | 4.8 | 14.5 | 0.00 | 0.00 | 0.00 | 75 | 1006.0 |
| 20260906003006 | 26 | 134 | 6.4 | 12.9 | 0.00 | 0.00 | 0.00 | 73 | 1005.9 |
| 20260906001504 | 26 | 134 | 3.2 | 12.9 | 0.00 | 0.00 | 0.00 | 71 | 1005.8 |
| 20260906000005 | 26 | 134 | 1.6 | 16.1 | 0.00 | 0.00 | 0.00 | 70 | 1005.6 |
| 20260905234504 | 27 | 134 | 6.4 | 20.9 | 0.00 | 0.00 | 0.00 | 68 | 1005.6 |
| 20260905233012 | 27 | 132 | 9.7 | 20.9 | 0.00 | 0.00 | 0.00 | 66 | 1005.6 |
| 20260905231503 | 28 | 121 | 6.4 | 16.1 | 0.00 | 0.00 | 0.00 | 64 | 1005.3 |
| 20260905230002 | 28 | 121 | 3.2 | 16.1 | 0.00 | 0.00 | 0.00 | 64 | 1005.2 |
| 20260905224502 | 28 | 121 | 0.0 | 17.7 | 0.00 | 0.00 | 0.00 | 63 | 1004.9 |
| 20260905223002 | 28 | 120 | 0.0 | 16.1 | 0.00 | 0.00 | 0.00 | 64 | 1004.7 |
| 20260905221601 | 28 | 120 | 3.2 | 12.9 | 0.00 | 0.00 | 0.00 | 65 | 1004.8 |
| 20260905220059 | 27 | 120 | 1.6 | 9.7 | 0.00 | 0.00 | 0.00 | 66 | 1005.2 |
| 20260905214558 | 27 | 120 | 0.0 | 6.4 | 0.00 | 0.00 | 0.00 | 65 | 1005.4 |
| 20260905213058 | 28 | 120 | 0.0 | 9.7 | 0.00 | 0.00 | 0.00 | 64 | 1005.4 |
| 20260905211601 | 28 | 120 | 0.0 | 11.3 | 0.00 | 0.00 | 0.00 | 67 | 1005.4 |
| 20260905210057 | 28 | 123 | 1.6 | 16.1 | 0.00 | 0.00 | 0.00 | 68 | 1005.2 |
| 20260905204550 | 27 | 122 | 4.8 | 16.1 | 0.00 | 0.00 | 0.00 | 71 | 1005.4 |
| 20260905203055 | 27 | 126 | 3.2 | 17.7 | 0.00 | 0.00 | 0.00 | 73 | 1005.8 |
| 20260905201547 | 27 | 126 | 3.2 | 14.5 | 0.00 | 0.00 | 0.00 | 74 | 1006.1 |
| 20260905200044 | 27 | 126 | 8.0 | 16.1 | 0.00 | 0.00 | 0.00 | 73 | 1006.7 |
| 20260905194544 | 26 | 126 | 8.0 | 12.9 | 0.00 | 0.00 | 0.00 | 74 | 1006.7 |
| 20260905193102 | 26 | 126 | 3.2 | 9.7 | 0.00 | 0.00 | 0.00 | 74 | 1006.9 |
| 20260905191543 | 26 | 126 | 0.0 | 6.4 | 0.00 | 0.00 | 0.00 | 74 | 1007.0 |
| 20260905190040 | 26 | 126 | 0.0 | 6.4 | 0.00 | 0.00 | 0.00 | 75 | 1007.2 |
| 20260905184539 | 26 | 126 | 0.0 | 6.4 | 0.00 | 0.00 | 0.00 | 76 | 1007.3 |
| 20260905183035 | 26 | 126 | 0.0 | 11.3 | 0.00 | 0.00 | 0.00 | 79 | 1007.3 |
| 20260905181532 | 25 | 126 | 0.0 | 9.7 | 0.00 | 0.00 | 0.00 | 80 | 1007.4 |
| 20260905180030 | 25 | 126 | 3.2 | 12.9 | 0.00 | 0.00 | 0.00 | 80 | 1007.6 |
| 20260905174525 | 24 | 126 | 1.6 | 14.5 | 0.00 | 0.00 | 0.00 | 84 | 1007.7 |